This is the latest recevied weather packets stored in our database for station/object KD2ZLA. If no packets are shown the sender has not sent any weather packets the latest 10 day(s).
| Time | Temp. | Humidity | Pressure | Rain* | Wind** | Luminosity | Snow |
|---|---|---|---|---|---|---|---|
| 1778016873 | 18.89° C | 61% | 1003.2 hPa | 0 mm | - | 108 W/m² | - |
| 1778016569 | 18.89° C | 60% | 1003.1 hPa | 0 mm | - | 113 W/m² | - |
| 1778016267 | 19.44° C | 59% | 1003.1 hPa | 0 mm | - | 80 W/m² | - |
| 1778015963 | 19.44° C | 58% | 1003.2 hPa | 0 mm | - | 78 W/m² | - |
| 1778015660 | 19.44° C | 58% | 1003 hPa | 0 mm | - | 49 W/m² | - |
| 1778015357 | 19.44° C | 58% | 1002.9 hPa | 0 mm | - | 76 W/m² | - |
| 1778015063 | 19.44° C | 58% | 1002.6 hPa | 0 mm | - | 118 W/m² | - |
| 1778014751 | 20° C | 57% | 1002.6 hPa | 0 mm | - | 141 W/m² | - |
| 1778014449 | 20° C | 57% | 1002.7 hPa | 0 mm | - | 219 W/m² | - |
| 1778014145 | 20° C | 57% | 1002.4 hPa | 0 mm | - | 191 W/m² | - |
| 1778013843 | 20° C | 58% | 1002.4 hPa | 0 mm | - | 239 W/m² | - |
| 1778013540 | 19.44° C | 57% | 1002.4 hPa | 0 mm | - | 185 W/m² | - |
| 1778013237 | 19.44° C | 57% | 1002.4 hPa | 0 mm | - | 121 W/m² | - |
| 1778012933 | 20° C | 56% | 1002.4 hPa | 0 mm | - | 101 W/m² | - |
| 1778012629 | 20° C | 57% | 1002.4 hPa | 0 mm | - | 113 W/m² | - |
| 1778012326 | 20° C | 56% | 1002.2 hPa | 0 mm | - | 120 W/m² | - |
| 1778012023 | 20° C | 55% | 1002.2 hPa | 0 mm | - | 147 W/m² | - |
| 1778011722 | 20.56° C | 55% | 1002.3 hPa | 0 mm | - | 206 W/m² | - |
| 1778011418 | 20.56° C | 55% | 1002.3 hPa | 0 mm | - | 300 W/m² | - |
| 1778011114 | 20.56° C | 55% | 1002.4 hPa | 0 mm | - | 248 W/m² | - |
| 1778010811 | 20.56° C | 54% | 1002.3 hPa | 0 mm | - | 235 W/m² | - |
| 1778010508 | 20.56° C | 55% | 1002.3 hPa | 0 mm | - | 298 W/m² | - |
| 1778010206 | 20.56° C | 55% | 1002.2 hPa | 0 mm | - | 533 W/m² | - |
| 1778009900 | 20° C | 56% | 1002.4 hPa | 0 mm | - | 399 W/m² | - |
| 1778009599 | 20° C | 56% | 1002.3 hPa | 0 mm | - | 286 W/m² | - |
* Rain latest hour (hover to see other rain measurements)
** Current wind speed in m/s (hover to see current wind gust speed)